Lid_Strength_Index
2 1 1 1 1 1 1 1 1 2 2 2 1 1 1 1 1 1 1 1 1 2 2 2 2 2 2 2 2 2 3 4 5 4 4 3 2 3 2 2 1 2 2
2 2 2 1 1 1 1 1 1 1 2 2 1 0 0 1 1 1 1 1 2 2 2 2 2 1 2 2 2 2 3 2 3 4 3 3 3 2 1 1 1 1 1
1 2 2 2 2 1 1 1 1 1 1 1 1 1 1 1 1 1 1 1 2 1 1 2 2 2 2 2 2 2 3 2 3 4 4 3 2 2 2 2 2 2 1
2 2 2 2 2 2 1 1 1 1 1 1 1 1 1 0 1 1 1 1 1 1 1 1 1 1 2 2 1 2 2 2 2 3 3 3 3 2 3 3 3 2 2
2 2 2 2 2 2 2 1 1 1 1 0 1 1 1 1 1 1 1 1 1 2 2 1 1 1 1 2 2 2 2 3 3 3 3 3 3 3 3 3 4 2 2
2 2 2 1 1 2 2 2 1 1 1 1 1 1 1 1 3 3 1 1 1 2 2 2 1 1 2 3 3 4 2 2 3 3 3 3 3 3 3 3 4 4 4
2 2 2 2 2 2 2 3 2 1 1 1 1 1 1 1 5 5 3 1 1 1 1 1 1 0 1 1 3 4 4 5 4 2 2 2 2 2 3 4 3 4 4
2 2 2 2 2 2 2 2 3 2 2 2 1 1 1 1 4 5 5 2 1 1 1 1 1 1 1 1 1 1 1 1 2 3 2 1 1 1 3 2 3 4 2
3 2 2 2 2 2 2 2 2 2 3 2 3 2 1 1 5 6 5 2 1 2 1 1 1 1 3 5 2 2 2 2 3 5 5 5 5 5 4 3 3 3 3
5 4 3 2 2 2 2 2 2 2 2 2 2 2 3 1 5 6 6 1 2 1 1 2 5 2 6 7 3 2 2 2 2 2 2 4 5 3 5 4 2 3 3
5 4 4 4 3 1 2 1 2 2 2 2 2 2 2 2 1 7 8 1 1 2 2 1 1 6 8 9 8 1 2 2 2 2 2 2 2 1 0 2 2 2 3
5 5 5 3 3 1 2 2 1 2 2 2 2 2 2 2 5 8 9 7 3 1 2 1 1 7 9 9 9 7 7 6 3 4 4 3 2 2 1 0 0 2 1
6 6 5 5 4 2 2 2 2 2 2 3 3 3 2 1 1 8 9 9 8 2 1 2 6 9 10 9 9 8 8 5 4 4 4 3 2 1 1 2 1 1 2
7 6 5 5 7 3 2 2 2 2 3 3 3 3 2 2 2 1 4 6 8 6 4 3 4 6 7 6 7 8 7 6 5 4 3 3 3 3 3 2 2 2 3
8 7 5 4 5 5 2 2 2 2 2 2 2 2 3 3 2 4 3 2 3 5 4 3 2 4 3 4 5 4 5 7 6 5 5 4 4 4 3 2 2 2 3
8 7 6 6 6 5 2 2 11 11 11 12 11 4 2 6 10 12 12 12 11 12 6 2 3 2 2 2 2 3 3 4 5 5 5 4 4 3 3 2 2 2 3
10 9 7 6 6 6 6 3 4 6 14 14 13 13 12 7 14 13 14 14 15 13 3 3 3 2 2 2 2 3 3 2 2 3 3 3 3 2 2 2 2 2 3
9 8 6 4 5 6 6 6 3 3 4 3 11 12 15 15 15 14 16 14 10 10 3 2 3 3 3 3 3 3 3 3 3 3 3 3 3 2 2 3 3 3 3
9 7 6 5 4 5 5 5 5 3 3 3 6 12 14 17 17 15 16 3 4 4 5 4 3 2 3 3 3 3 2 2 3 3 3 2 3 3 3 3 3 8 6
8 6 6 5 3 4 6 5 4 3 3 3 4 4 9 10 8 7 9 5 4 6 6 6 7 7 7 6 4 3 3 4 4 5 5 5 4 3 2 2 3 3 3
8 7 7 7 6 7 7 7 7 4 5 8 8 8 12 4 4 6 10 11 11 10 11 11 11 12 11 11 10 8 7 6 6 5 5 5 4 4 3 3 3 2 2
9 8 9 8 8 8 10 9 9 9 9 10 11 12 15 11 11 11 11 12 13 13 13 14 14 14 14 13 13 11 11 10 9 8 7 5 4 3 2 2 2 2 2
8 9 10 11 10 10 11 11 11 12 12 13 13 14 14 15 15 15 14 14 14 13 14 13 14 14 14 14 14 16 14 13 12 10 8 7 5 3 3 4 4 4 3
10 10 11 12 12 12 12 14 13 14 14 16 16 16 17 17 16 17 18 17 16 16 17 18 17 17 17 17 17 16 17 16 13 11 8 7 7 8 7 5 5 5 4
11 12 12 13 13 14 14 15 15 15 16 16 15 16 17 17 18 18 18 18 18 18 18 18 17 18 17 17 17 17 19 19 16 16 10 10 11 10 9 9 8 7 7
11 12 13 13 14 14 14 15 15 16 16 17 17 16 17 17 17 17 17 17 18 17 18 18 17 18 17 18 18 19 20 19 18 19 13 12 12 12 11 11 11 11 11